Location: Andrest
(43.3200°N, 0.0641°E)
Time: 21:14:33
(UTC+00:00)

CZ-4B R/B - Pass Details

Date: 01 December 2020
Orbit: 389 x 458 km, 97.6° (Epoch: 21 January)

Event Time Altitude Azimuth Distance (km) Brightness Sun altitude
Exits shadow 16:57:20 - 43° (NE) 1,761 3.8 -6.1°
Reaches altitude 10° 16:58:17 10° 54° (NE) 1,469 3.4 -6.2°
Maximum altitude 17:00:19 16° 95° (E) 1,167 3.0 -6.5°
Drops below altitude 10° 17:02:22 10° 135° (SE) 1,483 3.8 -6.9°
Sets 17:04:55 0° 158° (SSE) 2,355 5.1 -7.3°
